This is the latest recevied weather packets stored in our database for station/object W3BRL. If no packets are shown the sender has not sent any weather packets the latest 10 day(s).
| Time | Temp. | Humidity | Pressure | Rain* | Wind** | Luminosity | Snow |
|---|---|---|---|---|---|---|---|
| 1777942482 | 19.44° C | 51% | 1005.6 hPa | 0 mm | - | 0 W/m² | - |
| 1777942180 | 19.44° C | 51% | 1005.6 hPa | 0 mm | - | 0 W/m² | - |
| 1777941876 | 19.44° C | 51% | 1005.3 hPa | 0 mm | - | 0 W/m² | - |
| 1777941573 | 19.44° C | 50% | 1005.3 hPa | 0 mm | - | 0 W/m² | - |
| 1777941271 | 19.44° C | 50% | 1005.3 hPa | 0 mm | - | 0 W/m² | - |
| 1777940967 | 19.44° C | 50% | 1005.1 hPa | 0 mm | - | 0 W/m² | - |
| 1777940663 | 19.44° C | 50% | 1005.2 hPa | 0 mm | - | 1 W/m² | - |
| 1777940362 | 19.44° C | 50% | 1005 hPa | 0 mm | - | 3 W/m² | - |
| 1777940059 | 20° C | 50% | 1004.9 hPa | 0 mm | - | 5 W/m² | - |
| 1777939756 | 20° C | 50% | 1005 hPa | 0 mm | - | 7 W/m² | - |
| 1777939454 | 20° C | 49% | 1005 hPa | 0 mm | - | 10 W/m² | - |
| 1777939150 | 20° C | 50% | 1005.1 hPa | 0 mm | - | 15 W/m² | - |
| 1777938848 | 20° C | 49% | 1005.3 hPa | 0 mm | - | 24 W/m² | - |
| 1777938543 | 20° C | 51% | 1005.3 hPa | 0 mm | - | 29 W/m² | - |
| 1777938241 | 20° C | 51% | 1005.3 hPa | 0 mm | - | 33 W/m² | - |
| 1777937938 | 20° C | 51% | 1005.3 hPa | 0 mm | - | 35 W/m² | - |
| 1777937633 | 20° C | 52% | 1005.4 hPa | 0 mm | - | 42 W/m² | - |
| 1777937330 | 19.44° C | 56% | 1005.3 hPa | 0 mm | - | 46 W/m² | - |
| 1777937027 | 20° C | 54% | 1005.2 hPa | 0 mm | - | 48 W/m² | - |
| 1777936724 | 20.56° C | 52% | 1005.3 hPa | 0 mm | - | 57 W/m² | - |
| 1777936421 | 21.11° C | 47% | 1005.4 hPa | 0 mm | - | 118 W/m² | - |
| 1777936117 | 21.11° C | 48% | 1005.4 hPa | 0 mm | - | 217 W/m² | - |
| 1777935815 | 21.11° C | 44% | 1005.3 hPa | 0 mm | - | 89 W/m² | - |
| 1777935513 | 21.11° C | 44% | 1005.3 hPa | 0 mm | - | 23 W/m² | - |
| 1777935209 | 21.11° C | 44% | 1005.3 hPa | 0 mm | - | 44 W/m² | - |
* Rain latest hour (hover to see other rain measurements)
** Current wind speed in m/s (hover to see current wind gust speed)